Location: Godiavel Galaoual
(15.2485°N, 12.6604°W)
Time: 02:17:42
(UTC+00:00)

Transit 4A - Pass Details

Date: 15 June 2021
Orbit: 872 x 972 km, 66.8° (Epoch: 29 July)

Event Time Altitude Azimuth Distance (km) Brightness Sun altitude
Rises 19:49:15 0° 11° (NNE) 3,457 11.1 -6.7°
Reaches altitude 10° 19:53:57 10° 46° (NE) 2,531 10.0 -7.8°
Maximum altitude 19:55:35 11° 62° (ENE) 2,455 9.8 -8.1°
Drops below altitude 10° 19:57:14 10° 79° (E) 2,544 9.7 -8.5°
Enters shadow 19:58:46 - 92° (E) 2,761 9.8 -8.8°
Sets 20:01:57 0° 113° (ESE) 3,506 - -9.5°
